Theta_e
312 315 316 317 316 317 317 316 317 315 313 313 316 316 314 307 306 305 304 303 302 300 304 306 310 317 318 319 320 321 322 322 322 322 320 320 319 318 316 316 315 314 312 311
312 315 317 313 314 314 314 316 316 314 312 312 315 314 314 307 307 305 304 302 301 299 300 304 308 314 317 317 317 318 318 318 318 319 318 318 315 309 306 305 305 304 304 304
317 316 312 312 311 312 313 315 316 316 313 312 313 316 313 305 303 301 301 300 300 299 299 302 305 308 312 314 315 316 316 315 314 313 310 306 304 302 301 299 299 297 297 297
313 312 310 311 312 312 315 312 313 314 315 320 313 322 316 310 305 302 300 300 298 297 298 300 302 304 306 306 306 306 305 304 304 303 302 301 300 299 296 296 295 294 294 294
315 311 313 314 313 311 315 311 313 313 316 315 315 318 319 307 307 304 301 300 298 296 297 298 299 301 301 301 301 300 300 299 298 298 298 298 297 295 294 293 293 293 292 292
313 309 311 313 310 311 309 311 310 310 313 318 318 317 322 311 310 306 301 299 297 295 294 294 295 295 295 296 296 296 296 296 295 295 295 295 295 293 292 292 291 291 290 290
315 313 309 309 313 309 311 314 320 318 317 322 311 315 319 312 307 306 302 299 297 295 293 293 294 294 294 294 294 294 295 295 294 294 293 293 292 291 291 290 289 289 289 289
320 321 313 310 316 316 312 317 322 325 320 318 310 314 315 306 304 304 301 300 297 294 293 293 293 293 293 293 294 294 294 294 293 292 292 291 291 290 290 290 289 289 289 289
319 320 310 307 308 314 311 312 313 311 305 316 317 314 307 303 303 302 301 299 296 294 293 292 292 292 292 293 292 293 293 292 291 291 291 290 289 289 289 289 289 288 288 288
316 320 309 307 308 307 311 311 314 314 320 322 317 315 318 307 305 303 301 299 297 295 293 292 292 292 292 292 292 291 291 291 290 290 289 289 289 289 288 288 288 287 287 286
312 314 311 308 311 314 310 311 312 313 315 321 320 317 311 311 307 304 302 299 297 295 294 292 292 291 291 291 291 291 290 290 290 289 289 289 288 288 288 287 287 286 286 286
313 313 316 312 307 306 311 313 313 317 314 313 315 317 305 306 307 304 302 300 298 296 294 293 292 291 290 290 290 290 290 290 289 289 289 288 288 287 287 287 287 286 286 285
312 315 320 317 309 307 309 309 311 314 313 317 319 318 304 304 304 303 302 301 299 296 295 293 292 291 290 290 290 290 290 290 289 289 288 288 287 287 287 287 287 286 286 285
310 314 319 323 319 314 312 311 310 313 317 317 316 316 307 305 305 303 302 301 299 297 295 294 292 291 291 291 290 290 290 289 289 288 288 287 287 287 287 287 287 286 285 285
310 314 315 316 307 308 310 312 310 312 313 316 316 313 311 308 306 305 303 301 300 296 295 295 294 292 291 291 290 290 290 289 289 288 288 288 288 288 288 287 286 285 284 283
307 313 311 315 305 306 309 308 310 310 312 312 310 310 309 308 305 305 303 301 298 296 296 295 294 294 293 291 290 290 290 289 288 288 288 288 288 288 288 287 286 284 282 282
306 308 312 315 302 306 312 311 308 309 309 309 310 312 304 303 304 305 303 300 299 298 297 296 296 296 295 293 292 291 290 289 289 288 288 288 288 287 287 286 284 282 282 281
306 309 310 305 303 312 305 296 302 309 309 307 305 304 304 305 303 303 303 302 300 298 297 295 296 297 296 294 292 291 290 289 288 288 288 288 288 287 286 284 282 282 281 281
297 304 301 306 308 306 306 296 297 304 307 304 305 304 300 295 296 298 300 301 302 300 298 297 298 298 297 295 292 291 290 289 289 288 288 287 287 287 285 282 281 281 281 281
298 299 308 301 308 310 308 294 291 299 304 299 303 303 296 293 301 303 300 300 300 299 299 299 298 297 296 294 291 290 289 289 288 288 288 287 287 286 282 281 281 281 281 280
300 300 305 303 307 306 300 292 291 303 306 292 296 298 293 297 300 298 298 298 298 297 295 295 295 294 292 290 290 289 289 289 288 288 287 286 286 284 282 281 281 281 280 280
302 303 303 303 305 307 291 290 298 299 292 294 294 295 296 296 296 295 295 295 294 294 293 293 292 291 290 290 289 289 289 288 288 287 287 286 285 282 281 281 280 280 279 279
300 302 303 302 304 292 291 294 294 294 294 293 294 295 295 295 293 292 292 292 292 292 292 291 291 290 289 289 289 289 288 288 288 287 286 286 283 281 281 281 280 280 279 278
290 289 296 297 293 292 291 292 293 294 294 294 294 294 294 294 293 292 291 291 291 291 291 290 290 289 289 289 289 288 288 288 287 286 285 285 281 281 281 280 280 279 278 277
292 290 290 291 289 290 292 293 296 294 292 292 292 293 293 292 292 292 291 291 291 290 290 290 290 290 289 289 289 288 288 287 286 285 285 284 281 280 280 280 279 278 277 276
289 290 292 294 292 294 295 296 295 293 293 292 292 291 291 291 291 291 291 291 290 290 290 290 290 289 289 289 289 288 288 287 286 285 285 283 280 280 280 279 278 276 276 275
Wind_Speed
6 8 13 23 20 9 4 7 8 5 2 4 13 14 12 8 7 8 7 6 5 5 7 10 12 15 18 20 21 22 23 24 22 21 18 15 11 8 6 5 5 3 4 4
5 16 17 1 11 12 8 11 14 7 5 5 12 16 11 11 8 10 11 10 9 10 10 13 15 17 21 23 23 23 22 21 19 17 16 14 15 19 20 18 16 14 11 10
16 5 11 10 8 12 14 16 13 10 1 6 7 16 12 5 6 9 10 11 12 13 15 17 19 20 21 22 22 22 22 22 21 22 23 25 24 22 20 17 15 14 12 10
13 6 7 10 11 13 15 13 10 9 5 10 4 8 6 9 9 12 14 16 15 16 19 22 24 26 26 28 28 28 28 28 27 25 23 21 20 19 17 14 13 12 11 11
6 9 11 10 8 14 5 6 8 7 10 7 8 7 3 6 12 14 18 19 18 18 21 25 27 29 30 30 30 28 26 25 23 21 18 16 15 15 15 13 10 9 9 9
7 1 5 5 3 5 13 8 5 2 3 8 16 13 6 7 9 17 22 22 21 21 22 25 28 29 29 28 27 26 23 22 19 17 16 14 14 14 12 10 8 8 9 9
11 10 4 5 6 3 6 10 2 5 5 7 0 11 11 4 7 19 27 29 27 25 27 29 30 30 28 26 24 22 19 19 16 14 13 13 13 12 10 9 9 10 12 14
11 8 16 15 19 10 17 13 7 6 6 2 3 8 5 3 5 13 28 30 27 26 27 29 30 29 27 25 22 20 18 16 15 12 11 10 9 9 8 9 11 12 14 15
9 8 4 3 4 14 8 10 2 4 1 2 6 4 4 4 6 15 28 30 30 29 30 31 30 29 27 24 21 18 16 15 14 11 9 7 6 7 7 6 6 9 11 12
6 5 2 5 5 1 7 11 5 5 5 6 4 6 8 10 13 16 25 32 33 31 30 32 32 31 28 25 22 18 15 13 12 9 8 5 2 3 4 6 7 10 12 14
6 5 3 6 12 17 7 7 5 3 5 4 3 4 3 10 18 22 28 34 36 35 34 33 33 32 29 26 23 20 17 13 10 8 4 1 3 4 6 8 10 13 16 19
10 1 6 11 1 2 11 11 16 7 6 5 3 5 2 2 14 25 29 34 35 34 33 33 34 34 33 29 25 22 19 16 11 7 3 2 3 5 9 12 14 16 19 21
11 6 3 2 3 3 9 12 15 13 2 11 7 5 1 2 11 20 24 31 32 31 32 32 33 35 35 31 28 25 21 16 12 8 6 2 4 7 10 13 16 18 20 23
8 5 11 14 3 5 9 15 16 15 10 12 17 7 6 7 11 18 23 28 35 37 36 34 35 36 36 33 30 26 23 18 14 10 5 2 6 9 12 15 18 20 22 25
7 9 15 15 3 2 3 14 19 21 28 16 18 18 14 16 16 25 26 24 32 35 37 43 40 40 37 35 32 28 23 19 17 12 6 5 8 12 16 19 20 22 25 29
5 4 8 12 2 1 2 7 18 21 20 17 9 9 4 10 11 13 24 30 35 38 47 46 44 43 40 38 35 30 25 23 20 14 9 8 12 15 18 20 21 23 27 32
8 6 6 4 2 4 6 17 13 10 12 14 14 9 6 6 13 21 23 30 38 42 44 48 52 46 40 37 33 31 27 25 22 16 13 13 15 17 20 20 21 25 30 32
5 7 2 3 3 6 2 1 4 14 8 10 3 3 8 8 13 16 20 28 31 31 36 42 46 40 37 33 31 30 28 25 22 19 18 17 18 19 20 19 23 27 30 32
5 2 3 4 4 5 2 6 7 7 8 12 15 7 5 4 2 8 15 19 24 30 35 39 37 34 30 32 32 30 27 24 23 23 21 19 19 19 19 21 24 27 31 34
1 3 2 2 3 7 2 2 4 2 7 8 16 8 10 11 6 6 14 14 16 17 21 23 25 26 30 32 28 26 24 26 27 25 22 21 19 18 19 22 25 28 31 33
3 2 6 5 5 5 3 6 8 6 3 5 13 12 18 5 4 2 12 16 17 18 20 22 25 27 26 24 23 24 28 30 26 25 23 20 19 17 19 23 24 28 30 32
8 9 5 4 5 9 12 6 8 3 5 10 11 14 20 17 11 12 15 18 18 19 21 23 25 24 23 23 23 26 29 27 26 25 22 20 19 18 20 21 24 26 28 30
4 5 5 7 3 2 23 2 14 10 11 12 15 16 19 20 18 18 18 19 20 20 22 24 25 25 24 23 23 24 27 28 27 24 22 20 19 19 19 21 23 25 27 29
4 3 2 2 2 3 18 10 13 11 10 13 16 17 20 23 17 17 18 17 16 19 25 27 28 26 24 22 22 24 27 28 27 24 23 21 20 19 20 21 22 24 24 26
1 9 5 1 4 5 10 26 18 17 14 10 13 17 20 18 17 16 22 21 18 17 23 29 31 28 25 22 23 27 29 30 28 25 23 23 22 21 21 21 21 22 22 24
7 6 5 4 12 10 10 22 24 27 19 20 16 19 20 18 16 17 23 25 22 21 23 30 32 32 29 25 27 30 30 30 28 26 26 25 24 22 21 21 21 18 20 21
Wind_Direction
176 201 213 214 213 240 236 216 210 209 186 238 245 253 208 193 189 191 191 180 158 141 143 139 138 133 128 129 132 136 141 140 141 141 140 146 157 161 183 155 117 135 103 89
170 228 229 232 206 207 218 238 243 268 238 224 262 253 227 199 217 207 188 174 163 140 133 141 143 142 138 135 134 134 135 136 140 146 155 156 138 121 112 110 110 104 99 92
217 200 214 193 177 197 224 231 238 253 152 231 279 264 220 186 177 171 172 164 152 145 138 137 139 140 141 140 139 139 136 137 135 132 130 127 126 118 114 109 103 92 81 70
241 202 155 192 210 198 230 213 231 245 244 262 199 284 207 196 185 186 173 167 158 149 142 137 135 133 135 132 130 130 128 127 125 126 126 126 123 120 107 96 84 73 61 48
206 175 194 198 205 191 243 149 206 226 240 270 210 261 159 173 211 195 181 173 164 157 151 143 138 135 133 132 132 131 130 127 125 126 124 120 113 104 98 89 79 69 54 39
270 188 201 207 95 192 133 102 88 114 215 252 231 218 213 204 218 180 179 177 172 165 158 151 144 139 136 136 135 134 134 130 130 129 124 117 106 99 95 84 72 58 43 30
222 225 190 173 157 88 176 155 189 226 208 250 276 211 255 221 187 185 175 176 177 172 167 161 155 149 146 143 141 139 140 134 130 126 118 113 110 107 92 76 47 29 15 5
206 231 196 191 215 188 194 194 197 221 207 210 138 225 235 129 145 175 179 176 175 175 175 170 164 158 154 151 150 149 147 141 135 127 115 103 91 74 57 40 22 2 354 346
198 239 176 205 152 173 180 213 202 100 53 262 209 228 213 151 153 165 173 175 180 182 181 177 171 167 162 160 159 159 156 149 141 133 115 94 59 51 28 1 352 326 322 320
194 243 204 156 133 168 196 147 180 216 222 232 219 253 232 199 185 175 181 185 184 184 184 182 179 174 171 169 167 166 162 157 147 135 118 100 67 23 344 328 341 320 319 319
158 226 125 154 208 186 171 189 206 210 217 221 260 230 205 200 187 186 190 189 187 187 187 186 184 181 179 178 177 175 172 169 164 155 139 94 332 350 318 329 335 327 329 330
197 189 207 203 89 333 233 219 191 201 186 238 303 247 189 203 190 188 190 192 191 190 188 188 188 187 186 186 184 184 184 178 187 180 188 237 296 334 334 338 333 327 325 324
171 191 174 227 207 177 219 207 218 233 42 203 188 224 298 182 180 190 189 191 192 192 192 192 192 192 192 191 191 192 193 188 194 202 218 255 319 333 327 326 321 319 318 318
202 173 197 223 206 144 200 207 201 203 222 210 229 215 193 183 188 190 193 194 193 194 195 195 196 196 196 197 197 198 198 195 203 214 219 277 306 315 316 316 313 313 315 316
196 224 218 245 327 307 241 193 196 208 222 217 243 228 198 192 192 198 197 193 192 196 197 201 200 199 199 200 202 203 203 205 212 216 225 261 297 305 312 314 313 314 317 318
183 228 188 240 135 300 258 224 210 219 230 239 245 237 156 198 195 190 196 192 196 200 203 201 204 204 204 204 205 205 208 212 215 220 236 267 289 301 308 309 310 313 315 316
168 158 181 184 144 161 249 215 203 203 217 217 219 233 155 179 207 215 206 200 205 206 202 203 208 207 208 209 208 211 214 214 218 228 242 262 280 294 305 305 309 314 316 318
200 160 174 134 168 211 344 79 232 221 219 222 304 232 194 222 224 231 227 222 213 207 203 205 206 208 213 212 211 214 216 218 224 235 246 258 273 289 299 304 311 314 317 318
11 126 123 168 222 349 229 204 191 175 222 198 210 209 191 213 208 251 227 224 224 220 213 213 209 213 216 213 213 214 216 222 232 240 246 257 272 289 297 305 311 316 319 320
71 27 224 165 197 213 248 165 183 142 263 202 197 181 159 150 203 229 211 208 202 195 193 196 203 205 206 206 208 211 220 230 236 241 248 259 275 289 298 309 315 318 318 318
152 162 211 197 217 261 194 160 154 162 251 161 187 167 156 194 208 178 195 191 192 195 192 190 197 199 196 197 206 219 227 233 238 243 249 262 276 287 298 306 313 316 317 316
171 168 194 188 214 247 151 125 183 170 141 162 175 193 195 196 185 171 174 182 183 186 189 195 195 193 198 205 215 224 230 234 237 243 253 264 275 281 294 304 311 314 314 314
218 208 177 202 210 335 181 103 193 170 168 184 192 195 194 177 170 167 171 182 192 201 203 201 201 200 204 214 224 230 232 234 237 243 252 261 265 277 291 301 308 312 314 315
238 177 201 129 165 238 210 215 203 208 209 207 196 194 181 178 181 190 193 189 191 203 207 207 206 210 218 227 232 233 235 237 239 243 250 257 261 275 286 297 306 310 314 314
137 145 149 277 261 287 239 221 221 221 219 205 197 193 183 189 198 214 209 200 206 213 218 217 218 221 228 237 239 238 238 238 239 244 251 256 260 270 281 293 302 307 312 314
189 160 179 205 202 192 217 228 235 228 220 214 206 201 202 207 214 219 222 217 216 218 225 223 224 227 233 240 242 240 240 240 240 244 250 253 258 268 278 288 296 303 309 308